This is the latest recevied weather packets stored in our database for station/object SR9WXP. If no packets are shown the sender has not sent any weather packets the latest 1 day(s).
| Time | Temp. | Humidity | Pressure | Rain* | Wind** | Luminosity | Snow |
|---|---|---|---|---|---|---|---|
| 1778012222 | 8.89° C | 57% | 850.7 hPa | - | 3.58 m/s, 175° | - | - |
| 1778012104 | 8.89° C | 57% | 850.8 hPa | - | 2.68 m/s, 169° | - | - |
| 1778011984 | 8.89° C | 56% | 850.8 hPa | - | 3.13 m/s, 169° | - | - |
| 1778011927 | 8.89° C | 56% | 850.8 hPa | - | 3.58 m/s, 176° | - | - |
| 1778011863 | 9.44° C | 56% | 850.8 hPa | - | 3.13 m/s, 177° | - | - |
| 1778011743 | 9.44° C | 56% | 850.8 hPa | - | 3.13 m/s, 176° | - | - |
| 1778011619 | 9.44° C | 56% | 850.8 hPa | - | 2.68 m/s, 178° | - | - |
| 1778011502 | 9.44° C | 56% | 850.8 hPa | - | 3.13 m/s, 178° | - | - |
| 1778011382 | 9.44° C | 56% | 850.8 hPa | - | 3.58 m/s, 171° | - | - |
| 1778011319 | 9.44° C | 56% | 850.8 hPa | - | 3.58 m/s, 166° | - | - |
| 1778011261 | 9.44° C | 56% | 850.8 hPa | - | 3.13 m/s, 170° | - | - |
| 1778011141 | 9.44° C | 56% | 850.8 hPa | - | 3.13 m/s, 172° | - | - |
| 1778011016 | 9.44° C | 56% | 850.8 hPa | - | 2.68 m/s, 165° | - | - |
| 1778010898 | 9.44° C | 56% | 850.8 hPa | - | 3.13 m/s, 165° | - | - |
| 1778010778 | 9.44° C | 55% | 850.8 hPa | - | 3.13 m/s, 173° | - | - |
| 1778010716 | 9.44° C | 55% | 850.8 hPa | - | 2.68 m/s, 175° | - | - |
| 1778010658 | 9.44° C | 55% | 850.8 hPa | - | 2.68 m/s, 174° | - | - |
| 1778010537 | 9.44° C | 55% | 850.8 hPa | - | 2.68 m/s, 163° | - | - |
| 1778010413 | 9.44° C | 55% | 850.8 hPa | - | 3.13 m/s, 162° | - | - |
| 1778010295 | 9.44° C | 55% | 850.8 hPa | - | 2.68 m/s, 173° | - | - |
| 1778010175 | 9.44° C | 55% | 850.8 hPa | - | 2.68 m/s, 176° | - | - |
| 1778010113 | 9.44° C | 55% | 850.8 hPa | - | 3.13 m/s, 174° | - | - |
| 1778010055 | 9.44° C | 55% | 850.8 hPa | - | 3.13 m/s, 171° | - | - |
| 1778009934 | 9.44° C | 55% | 850.8 hPa | - | 3.13 m/s, 170° | - | - |
| 1778009811 | 9.44° C | 55% | 850.8 hPa | - | 3.58 m/s, 172° | - | - |
* Rain since midnight (hover to see other rain measurements)
** Current wind speed in m/s (hover to see current wind gust speed)